Find WHDW 20-01

NORAD ID: 68129 Int'l Des: 2026-047 Owner: ZXW Country: CN Constellation: xingwang operational
LEOCIRCULAR

リアルタイム位置

3D地球を読み込み中...

WHDW 20-01について

説明を読み込み中...

次回通過

Passes for default location (London). Set your location on the main map for personalized predictions.

高度履歴

Loading altitude history...

軌道要素

1 68129U 26047A 26119.62517560 -.00000119 00000-0 15855-4 0 9996
2 68129 50.0115 230.8990 0000809 188.4400 171.6464 13.41794691 6609
Epoch: Apr 29, 2026 • Age: 10 hours

現在のステータス

高度 1119.5 km
速度 7.29 km/s
衛星直下点 -50.08°S, 102.03°W
打ち上げ日 Mar 12, 2026
運用期間 0.1 years
タイプ other

技術仕様

分類 Payload
質量 700.00 kg
乾燥質量 700.00 kg
総質量 700.00 kg
長さ 3.00 m
直径 1.00 m
スパン 10.00 m
形状 Box + 2 Pan
製造者 CAST
バスタイプ Xingwang C
フェーズステータス In Orbit
所有者/国 ZXW/CN

Most Searched